Hourly Data Report for September 27, 2020

BRIER ISLAND
NOVA SCOTIA
Current Station Operator: ECCC - MSC

44°17'09.000" N
66°20'48.000" W
15.80 m
8200604
71988
WVU

Download Data

Hourly Data (September 2020)
Hourly Data Report for September 27, 2020
TIME Temp Definition
°C
Dew Point Definition
°C
Rel Hum Definition
%
Wind Dir Definition
10's deg

Wind Spd Definition
km/h
Visibility Definition
km
Stn Press Definition
kPa
Hmdx Definition


Wind Chill Definition


Weather Definition


00:00 13.3 13.3 100 16 17   101.78     LegendNANA
01:00 13.6 13.6 100 16 16   101.72     LegendNANA
02:00 13.6 13.6 100 16 19   101.69     LegendNANA
03:00 13.4 13.4 100 16 17   101.69     LegendNANA
04:00 12.6 12.6 100 15 20   101.65     LegendNANA
05:00 12.5 12.5 100 15 19   101.66     LegendNANA
06:00 13.0 13.0 100 16 18   101.70     LegendNANA
07:00 12.8 12.8 100 15 18   101.69     LegendNANA
08:00 14.0 14.0 100 15 20   101.69     LegendNANA
09:00 14.2 14.2 100 15 22   101.72     LegendNANA
10:00 15.6 15.6 100 15 22   101.74     LegendNANA
11:00 15.5 15.5 100 15 22   101.67     LegendNANA
12:00 15.2 15.2 100 15 22   101.66     LegendNANA
13:00 15.0 15.0 100 15 19   101.63     LegendNANA
14:00 14.9 14.9 100 15 18   101.60     LegendNANA
15:00 14.8 14.8 100 15 21   101.59     LegendNANA
16:00 15.5 15.5 100 16 15   101.57     LegendNANA
17:00 13.8 13.8 100 15 22   101.57     LegendNANA
18:00 14.0 14.0 100 15 23   101.59     LegendNANA
19:00 14.2 14.2 100 16 23   101.60     LegendNANA
20:00 14.2 14.2 100 16 23   101.61     LegendNANA
21:00 14.7 14.7 100 16 23   101.60     LegendNANA
22:00 15.2 15.2 100 16 22   101.62     LegendNANA
23:00 14.1 14.1 100 15 21   101.66     LegendNANA

Notes on Data Quality.

Legend

  • E = Estimated
  • M = Missing
  • NA = Not Available*
  • [empty] = Indicates an unobserved value
Date modified: